Home   Weather   Basse-Terre   Past weeks

Flag for Guadeloupe Past Weather in Basse-Terre, Guadeloupe — Yesterday and Last 2 Weeks

Now
70 °F

Clear.


Feels Like: 70 °F
Forecast: 70 / 79 °F
Wind: No wind

Location: Le Raizet - Guadeloupe

Current Time: Feb 23, 2017 at 5:33:58 am

Latest Report: Feb 23, 2017 at 4:30 am


Visibility: 10 mi

Pressure: 29.86 "Hg

Humidity: 94%

Dew Point: 68 °F

Location of Basse-TerreLocation

Past Weather in Basse-Terre — Graph

°F

Basse-Terre Temperature Yesterday

Maximum temperature yesterday: 82 °F (at 11:30 am)
Minimum temperature yesterday: 68 °F (at 3:00 am)
Average temperature yesterday: 75 °F

High & Low Weather Summary for the Past Weeks

 TemperatureHumidityPressure
High86 °F (Feb 19, 12:00 pm)100% (Feb 13, 6:30 am)30.12 "Hg (Feb 13, 6:30 am)
Low64 °F (Feb 13, 6:30 am)40% (Feb 9, 3:00 pm)29.77 "Hg (Feb 21, 3:00 pm)
Average76 °F74%29.99 "Hg
* Reported Feb 8 4:00 am — Feb 23 4:00 am, Basse-Terre, Weather by CustomWeather, © 2017

Note: Actual official high and low records may vary slightly from our data, if they occured in-between our weather recording intervals... More about our weather records

Advertising

Basse-Terre Weather History for the Previous 24 Hours

Scroll right to see more
 ConditionsComfort  
Time TempWeatherWind HumidityBarometerVisibility
4:00 am
Thu, Feb 23
70 °FClear.2 mph94%29.86 "Hg10 mi
3:30 am70 °FClear.No wind94%29.86 "Hg10 mi
3:00 am70 °FClear.3 mph94%29.86 "Hg10 mi
2:30 am70 °FOvercast.1 mph94%29.86 "HgN/A
2:00 am70 °FPartly cloudy.3 mph94%29.89 "HgN/A
1:30 am70 °FOvercast.2 mph94%29.89 "HgN/A
1:00 am68 °FPartly cloudy.3 mph94%29.89 "HgN/A
12:00 am68 °FClear.No wind94%29.89 "Hg10 mi
11:30 pm
Wed, Feb 22
70 °FClear.2 mph88%29.89 "Hg10 mi
11:00 pm70 °FClear.2 mph88%29.89 "Hg10 mi
10:30 pm70 °FClear.2 mph94%29.89 "Hg10 mi
10:00 pm72 °FPassing clouds.No wind83%29.89 "HgN/A
9:30 pm72 °FPassing clouds.1 mph83%29.89 "HgN/A
9:00 pm72 °FClear.No wind88%29.86 "Hg10 mi
8:30 pm73 °FClear.3 mph78%29.86 "Hg10 mi
8:00 pm75 °FPassing clouds.3 mph74%29.86 "HgN/A
7:30 pm75 °FPassing clouds.3 mph74%29.86 "HgN/A
7:00 pm75 °FClear.2 mph74%29.83 "Hg10 mi
6:30 pm77 °FClear.6 mph69%29.83 "Hg10 mi
6:00 pm77 °FPassing clouds.6 mph69%29.83 "HgN/A
5:30 pm81 °FPassing clouds.7 mph62%29.83 "HgN/A
5:00 pm81 °FPassing clouds.9 mph62%29.80 "HgN/A
4:30 pm81 °FSunny.10 mph62%29.80 "Hg10 mi
4:00 pm81 °FPassing clouds.10 mph62%29.80 "HgN/A
3:30 pm82 °FPassing clouds.12 mph58%29.80 "HgN/A
3:00 pm82 °FPassing clouds.13 mph58%29.80 "HgN/A
2:30 pm81 °FPartly sunny.10 mph54%29.80 "HgN/A
2:00 pm81 °FPassing clouds.8 mph58%29.83 "HgN/A
1:30 pm81 °FPassing clouds.9 mph58%29.83 "HgN/A
1:00 pm82 °FPassing clouds.8 mph55%29.83 "HgN/A
12:30 pm82 °FPassing clouds.10 mph55%29.83 "HgN/A
12:00 pm82 °FPassing clouds.9 mph55%29.86 "HgN/A
11:30 am82 °FClear.8 mph55%29.86 "HgN/A
11:00 am81 °FClear.8 mph62%29.86 "HgN/A
10:30 am81 °FClear.7 mph58%29.86 "HgN/A
10:00 am81 °FPassing clouds.5 mph58%29.86 "HgN/A
9:30 am79 °FPassing clouds.7 mph58%29.86 "HgN/A
9:00 am79 °FPassing clouds.8 mph65%29.86 "HgN/A
8:30 am77 °FPassing clouds.1 mph74%29.86 "HgN/A
8:00 am75 °FSunny.2 mph78%29.86 "Hg10 mi
7:30 am72 °FSunny.No wind88%29.83 "Hg10 mi
7:00 am68 °FPassing clouds.2 mph100%29.83 "HgN/A
6:30 am68 °FPartly sunny.2 mph94%29.83 "HgN/A
6:00 am68 °FPassing clouds.2 mph94%29.80 "HgN/A
5:30 am68 °FPassing clouds.3 mph94%29.80 "HgN/A
5:00 am70 °FPassing clouds.1 mph94%29.80 "HgN/A
Weather by CustomWeather, © 2017

See weather overviewHow to use our weather pages